Weather History for Papa, Hungary

Change the Weather History Date:

Friday, December 7, 2012

  Actual Average Record
Temperature  
Mean Temperature 27 °F -  
Max Temperature 33 °F - - ()
Min Temperature 21 °F - - ()
Degree Days  
Heating Degree Days 38    
Moisture  
Dew Point 20 °F    
Average Humidity 71    
Maximum Humidity 80    
Minimum Humidity 60    
Precipitation  
Precipitation 0.00 in - - ()
Sea Level Pressure  
Sea Level Pressure 29.95 in    
Wind  
Wind Speed 6 mph ()    
Max Wind Speed 16 mph    
Max Gust Speed -    
Visibility 5.9 miles    
Events      
T = Trace of Precipitation, MM = Missing Value Source: Averaged Metar Reports

Daily Weather History Graph

Daily Weather History Graph

Search for Another Location

Airport:

Trip Planner

Search our weather history database for the weather conditions in past years. The results will help you decide how hot, cold, wet, or windy it might be!

Date:

Astronomy

Dec. 07, 2012 Rise Set
Actual Time 7:23 AM CET 3:59 PM CET
Civil Twilight 6:48 AM CET 4:35 PM CET
Nautical Twilight 6:09 AM CET 5:13 PM CET
Astronomical Twilight 5:32 AM CET 5:51 PM CET
Moon No Moon Rise 12:09 PM CET (12/7)
Length of Visible Light 9h 47m
Length of Day
8h 36m
Last Quarter, 41% of the Moon is Illuminated
Dec 7
Last Quarter
Dec 13
New
Dec 20
First Quarter
Dec 28
Full
Jan 5
Last Quarter

Hourly Weather History & Observations

Time (CET) Temp. Windchill Dew Point Humidity Pressure Visibility Wind Dir Wind Speed Gust Speed Precip Events Conditions
12:15 AM 28.4 °F 19.9 °F 23.0 °F 80% 30.01 in - NW 8.9 mph - N/A   Clear
12:45 AM 28.4 °F 19.9 °F 21.2 °F 74% 30.01 in - NW 8.9 mph - N/A   Clear
1:15 AM 26.6 °F 21.3 °F 21.2 °F 80% 30.01 in - NW 4.5 mph - N/A   Clear
1:45 AM 26.6 °F 21.3 °F 21.2 °F 80% 30.01 in - NW 4.5 mph - N/A   Clear
2:15 AM 26.6 °F 19.2 °F 19.4 °F 74% 30.01 in - NNW 6.7 mph - N/A   Clear
2:45 AM 26.6 °F 19.2 °F 21.2 °F 80% 30.01 in - NNW 6.7 mph - N/A   Clear
3:15 AM 28.4 °F 21.4 °F 21.2 °F 74% 30.01 in 6.2 mi NW 6.7 mph - N/A   Mostly Cloudy
3:45 AM 28.4 °F 19.9 °F 21.2 °F 74% 30.04 in - NW 8.9 mph - N/A   Clear
4:15 AM 24.8 °F 17.1 °F 15.8 °F 69% 30.01 in - NNW 6.7 mph - N/A   Clear
4:45 AM 24.8 °F 17.1 °F 15.8 °F 69% 30.04 in - NNW 6.7 mph - N/A   Clear
5:15 AM 26.6 °F 21.3 °F 15.8 °F 64% 30.01 in - North 4.5 mph - N/A   Clear
5:45 AM - - - N/A% - 6.2 mi Variable 4.5 mph - N/A   Clear
6:15 AM 24.8 °F - 14.0 °F 64% 30.01 in - ENE 2.2 mph - N/A   Clear
6:45 AM 21.2 °F - 14.0 °F 74% 30.01 in - NE 2.2 mph - N/A   Clear
7:15 AM 21.2 °F - 15.8 °F 80% 30.01 in - ESE 2.2 mph - N/A   Clear
7:45 AM 21.2 °F - 15.8 °F 80% 30.01 in - SSE 2.2 mph - N/A   Clear
8:15 AM 24.8 °F - 17.6 °F 74% 30.01 in - SW 2.2 mph - N/A   Clear
8:45 AM - - - N/A% - 6.2 mi Variable 4.5 mph - N/A   Clear
9:15 AM 28.4 °F 23.4 °F 19.4 °F 69% 30.01 in 6.2 mi SW 4.5 mph - N/A   Partly Cloudy
9:45 AM 28.4 °F 23.4 °F 19.4 °F 69% 30.01 in 6.2 mi SW 4.5 mph - N/A   Partly Cloudy
10:15 AM 30.2 °F 23.5 °F 19.4 °F 64% 30.01 in 6.2 mi SSW 6.7 mph - N/A   Partly Cloudy
10:45 AM 30.2 °F 25.5 °F 19.4 °F 64% 29.98 in 6.2 mi SSW 4.5 mph - N/A   Scattered Clouds
11:15 AM 30.2 °F 25.5 °F 19.4 °F 64% 29.98 in 6.2 mi SSW 4.5 mph - N/A   Mostly Cloudy
11:45 AM - - - N/A% - 6.2 mi SSW 6.7 mph - N/A   Clear
12:15 PM 32.0 °F 25.7 °F 21.2 °F 64% 29.95 in 6.2 mi SSW 6.7 mph - N/A   Partly Cloudy
12:45 PM 33.8 °F 27.9 °F 23.0 °F 65% 29.95 in 6.2 mi SSW 6.7 mph - N/A   Partly Cloudy
1:15 PM 33.8 °F 24.5 °F 21.2 °F 60% 29.92 in 6.2 mi SW 13.4 mph - N/A   Partly Cloudy
1:45 PM 33.8 °F 25.4 °F 21.2 °F 60% 29.92 in 6.2 mi SW 11.2 mph - N/A   Scattered Clouds
2:15 PM 32.0 °F 23.2 °F 21.2 °F 64% 29.92 in 6.2 mi SSW 11.2 mph - N/A   Partly Cloudy
2:45 PM - - - N/A% - 6.2 mi SSW 6.7 mph - N/A   Clear
3:15 PM 32.0 °F 25.7 °F 23.0 °F 69% 29.89 in 6.2 mi South 6.7 mph - N/A   Mostly Cloudy
3:45 PM 30.2 °F 23.5 °F 23.0 °F 75% 29.89 in 6.2 mi South 6.7 mph - N/A   Mostly Cloudy
4:15 PM 30.2 °F 22.1 °F 23.0 °F 75% 29.89 in - SSE 8.9 mph - N/A   Clear
4:45 PM 28.4 °F 21.4 °F 21.2 °F 74% 29.89 in - SSE 6.7 mph - N/A   Clear
5:15 PM 26.6 °F 19.2 °F 21.2 °F 80% 29.89 in - SSE 6.7 mph - N/A   Clear
5:45 PM - - - N/A% - 6.2 mi ESE 8.9 mph - N/A   Clear
6:15 PM 28.4 °F 21.4 °F 21.2 °F 74% 29.86 in - ESE 6.7 mph - N/A   Clear
6:45 PM 26.6 °F 19.2 °F 21.2 °F 80% 29.86 in - SE 6.7 mph - N/A   Clear
7:15 PM 28.4 °F 23.4 °F 21.2 °F 74% 29.86 in - ESE 4.5 mph - N/A   Clear
7:45 PM 28.4 °F 21.4 °F 21.2 °F 74% 29.86 in - ESE 6.7 mph - N/A   Clear
8:15 PM 28.4 °F 21.4 °F 23.0 °F 80% 29.86 in - SE 6.7 mph - N/A   Clear
8:45 PM - - - N/A% - 3.1 mi ESE 8.9 mph - N/A   Unknown
9:15 PM 30.2 °F 23.5 °F 21.2 °F 69% 29.86 in - ESE 6.7 mph - N/A   Clear
9:45 PM 30.2 °F 23.5 °F 21.2 °F 69% 29.86 in - ESE 6.7 mph - N/A   Clear
10:15 PM 30.2 °F 20.9 °F 19.4 °F 64% 29.86 in 6.2 mi SE 11.2 mph - N/A   Overcast
10:45 PM 30.2 °F 22.1 °F 19.4 °F 64% 29.86 in - SE 8.9 mph - N/A   Clear
11:15 PM 30.2 °F 19.1 °F 19.4 °F 64% 29.86 in 6.2 mi SE 15.7 mph - N/A   Overcast
11:45 PM - - - N/A% - 3.1 mi North - - N/A   Unknown